Time,TemperatureF,DewpointF,PressureIn,WindDirection,WindDirectionDegrees,WindSpeedMPH,WindSpeedGustMPH,Humidity,HourlyPrecipIn,Conditions,Clouds,dailyrainin,SoftwareType,DateUTC
2013-04-26 00:03:00,44.8,33.4,29.55,SE,135,2.7,2.7,64,0.00,,,0.00,WUHU216HW,2013-04-26 05:03:00,
2013-04-26 00:08:00,45.0,33.6,29.55,SE,135,2.5,2.7,64,0.00,,,0.00,WUHU216HW,2013-04-26 05:08:00,
2013-04-26 00:13:00,45.0,33.6,29.55,SSE,158,2.7,2.7,64,0.00,,,0.00,WUHU216HW,2013-04-26 05:13:00,
2013-04-26 00:18:00,44.8,33.8,29.54,SE,135,1.8,3.4,65,0.00,,,0.00,WUHU216HW,2013-04-26 05:18:00,
2013-04-26 00:23:00,44.6,33.9,29.55,SSE,158,2.7,3.4,66,0.00,,,0.00,WUHU216HW,2013-04-26 05:23:00,
2013-04-26 00:28:00,44.8,34.1,29.55,SSE,158,3.4,4.0,66,0.00,,,0.00,WUHU216HW,2013-04-26 05:28:00,
2013-04-26 00:33:00,45.0,34.3,29.55,SSE,158,2.5,4.0,66,0.00,,,0.00,WUHU216HW,2013-04-26 05:33:00,
2013-04-26 00:38:00,45.0,34.3,29.55,SSE,158,2.9,5.4,66,0.00,,,0.00,WUHU216HW,2013-04-26 05:38:00,
2013-04-26 00:43:00,45.2,34.8,29.55,SSE,158,2.5,5.4,67,0.00,,,0.00,WUHU216HW,2013-04-26 05:43:00,
2013-04-26 00:48:00,45.4,34.7,29.55,SSE,158,2.5,4.7,66,0.00,,,0.00,WUHU216HW,2013-04-26 05:48:00,
2013-04-26 00:53:00,45.4,34.3,29.55,SSE,158,3.4,4.7,65,0.00,,,0.00,WUHU216HW,2013-04-26 05:53:00,
2013-04-26 00:58:00,45.4,34.7,29.55,SE,135,2.9,4.5,66,0.00,,,0.00,WUHU216HW,2013-04-26 05:58:00,
2013-04-26 01:04:00,45.2,34.5,29.55,SSE,158,3.8,4.5,66,0.00,,,0.00,WUHU216HW,2013-04-26 06:04:00,
2013-04-26 01:09:00,45.2,34.5,29.55,SE,135,3.4,4.3,66,0.00,,,0.00,WUHU216HW,2013-04-26 06:09:00,
2013-04-26 01:14:00,45.0,34.3,29.55,SE,135,2.7,4.5,66,0.00,,,0.00,WUHU216HW,2013-04-26 06:14:00,
2013-04-26 01:19:00,45.0,34.7,29.55,SE,135,3.6,4.5,67,0.00,,,0.00,WUHU216HW,2013-04-26 06:19:00,
2013-04-26 01:24:00,45.0,34.7,29.55,SE,135,2.7,4.0,67,0.00,,,0.00,WUHU216HW,2013-04-26 06:24:00,
2013-04-26 01:29:00,45.2,34.8,29.55,SSE,158,4.3,4.3,67,0.00,,,0.00,WUHU216HW,2013-04-26 06:29:00,
2013-04-26 01:34:00,45.0,34.7,29.54,SE,135,3.4,4.5,67,0.00,,,0.00,WUHU216HW,2013-04-26 06:34:00,
2013-04-26 01:39:00,45.0,34.7,29.54,SSE,158,2.5,6.0,67,0.00,,,0.00,WUHU216HW,2013-04-26 06:39:00,
2013-04-26 01:45:00,45.2,34.8,29.54,SSE,158,2.7,6.0,67,0.00,,,0.00,WUHU216HW,2013-04-26 06:45:00,
2013-04-26 01:50:00,45.4,35.0,29.54,SE,135,6.3,6.3,67,0.00,,,0.00,WUHU216HW,2013-04-26 06:50:00,
2013-04-26 01:55:00,45.5,35.2,29.53,SSE,158,5.4,6.3,67,0.00,,,0.00,WUHU216HW,2013-04-26 06:55:00,
2013-04-26 02:00:00,45.7,35.0,29.53,SE,135,4.7,5.4,66,0.00,,,0.00,WUHU216HW,2013-04-26 07:00:00,
2013-04-26 02:05:00,45.7,35.0,29.53,SSE,158,5.4,5.6,66,0.00,,,0.00,WUHU216HW,2013-04-26 07:05:00,
2013-04-26 02:10:00,45.7,35.0,29.53,SSE,158,2.5,5.6,66,0.00,,,0.00,WUHU216HW,2013-04-26 07:10:00,
2013-04-26 02:15:00,45.7,35.0,29.53,SSE,158,3.4,5.6,66,0.00,,,0.00,WUHU216HW,2013-04-26 07:15:00,
2013-04-26 02:20:00,45.5,34.8,29.53,SSE,158,4.3,4.7,66,0.00,,,0.00,WUHU216HW,2013-04-26 07:20:00,
2013-04-26 02:25:00,45.5,35.2,29.52,SE,135,4.7,6.5,67,0.00,,,0.00,WUHU216HW,2013-04-26 07:25:00,
2013-04-26 02:30:00,45.5,35.2,29.53,SSE,158,4.5,6.5,67,0.00,,,0.00,WUHU216HW,2013-04-26 07:30:00,
2013-04-26 02:36:00,45.5,35.2,29.52,SE,135,4.7,6.3,67,0.00,,,0.00,WUHU216HW,2013-04-26 07:36:00,
2013-04-26 02:41:00,45.5,35.2,29.52,SSW,203,5.8,6.3,67,0.00,,,0.00,WUHU216HW,2013-04-26 07:41:00,
2013-04-26 02:46:00,45.5,35.2,29.52,SE,135,3.4,5.8,67,0.00,,,0.00,WUHU216HW,2013-04-26 07:46:00,
2013-04-26 02:51:00,45.4,35.0,29.52,SSE,158,2.7,5.8,67,0.00,,,0.00,WUHU216HW,2013-04-26 07:51:00,
2013-04-26 02:56:00,45.4,35.0,29.52,SE,135,4.5,5.8,67,0.00,,,0.00,WUHU216HW,2013-04-26 07:56:00,
2013-04-26 03:01:00,45.2,34.8,29.52,SSE,158,8.1,8.1,67,0.00,,,0.00,WUHU216HW,2013-04-26 08:01:00,
2013-04-26 03:06:00,45.0,35.1,29.52,SE,135,4.9,8.1,68,0.00,,,0.00,WUHU216HW,2013-04-26 08:06:00,
2013-04-26 03:11:00,45.2,35.2,29.52,SE,135,4.5,4.9,68,0.00,,,0.00,WUHU216HW,2013-04-26 08:11:00,
2013-04-26 03:16:00,45.0,35.1,29.52,SSE,158,7.6,7.6,68,0.00,,,0.00,WUHU216HW,2013-04-26 08:16:00,
2013-04-26 03:21:00,45.0,35.1,29.52,SSE,158,2.7,7.6,68,0.00,,,0.00,WUHU216HW,2013-04-26 08:21:00,
2013-04-26 03:26:00,45.0,35.1,29.52,SE,135,4.0,7.6,68,0.00,,,0.00,WUHU216HW,2013-04-26 08:26:00,
2013-04-26 03:31:00,44.8,34.9,29.52,SE,135,3.1,7.6,68,0.00,,,0.00,WUHU216HW,2013-04-26 08:31:00,
2013-04-26 03:37:00,44.6,34.8,29.52,SE,135,3.4,5.1,68,0.00,,,0.00,WUHU216HW,2013-04-26 08:37:00,
2013-04-26 03:42:00,44.6,34.8,29.52,SE,135,2.7,5.1,68,0.00,,,0.00,WUHU216HW,2013-04-26 08:42:00,
2013-04-26 03:47:00,44.5,34.9,29.52,SSE,158,4.5,4.7,69,0.00,,,0.00,WUHU216HW,2013-04-26 08:47:00,
2013-04-26 03:52:00,44.3,34.7,29.52,SSE,158,4.0,4.5,69,0.00,,,0.00,WUHU216HW,2013-04-26 08:52:00,
2013-04-26 03:57:00,44.3,35.1,29.53,East,90,4.3,4.5,70,0.00,,,0.00,WUHU216HW,2013-04-26 08:57:00,
2013-04-26 04:02:00,44.3,35.1,29.52,SE,135,4.7,4.7,70,0.00,,,0.00,WUHU216HW,2013-04-26 09:02:00,
2013-04-26 04:07:00,44.1,35.0,29.52,SSE,158,3.1,6.3,70,0.00,,,0.00,WUHU216HW,2013-04-26 09:07:00,
2013-04-26 04:12:00,44.1,35.3,29.53,SSE,158,3.6,6.3,71,0.00,,,0.00,WUHU216HW,2013-04-26 09:12:00,
2013-04-26 04:18:00,44.3,35.5,29.53,SE,135,2.0,4.7,71,0.00,,,0.00,WUHU216HW,2013-04-26 09:18:00,
2013-04-26 04:23:00,44.3,35.8,29.52,SSE,158,3.1,3.8,72,0.00,,,0.00,WUHU216HW,2013-04-26 09:23:00,
2013-04-26 04:28:00,44.5,35.7,29.52,SE,135,3.1,3.8,71,0.00,,,0.00,WUHU216HW,2013-04-26 09:28:00,
2013-04-26 04:33:00,44.5,36.0,29.52,SE,135,5.4,5.4,72,0.00,,,0.00,WUHU216HW,2013-04-26 09:33:00,
2013-04-26 04:38:00,44.5,36.0,29.52,SE,135,4.3,5.4,72,0.00,,,0.00,WUHU216HW,2013-04-26 09:38:00,
2013-04-26 04:43:00,44.5,35.7,29.52,SSE,158,4.0,5.6,71,0.00,,,0.00,WUHU216HW,2013-04-26 09:43:00,
2013-04-26 04:48:00,44.3,35.8,29.52,SSE,158,4.7,5.6,72,0.00,,,0.00,WUHU216HW,2013-04-26 09:48:00,
2013-04-26 04:54:00,44.3,35.8,29.52,ESE,113,2.7,4.7,72,0.00,,,0.00,WUHU216HW,2013-04-26 09:54:00,
2013-04-26 04:59:00,44.3,35.8,29.52,SE,135,4.5,4.9,72,0.00,,,0.00,WUHU216HW,2013-04-26 09:59:00,
2013-04-26 05:04:00,44.3,35.8,29.52,SE,135,6.9,6.9,72,0.00,,,0.00,WUHU216HW,2013-04-26 10:04:00,
2013-04-26 05:09:00,44.3,35.8,29.51,SE,135,5.4,6.9,72,0.00,,,0.00,WUHU216HW,2013-04-26 10:09:00,
2013-04-26 05:14:00,44.3,35.8,29.52,SSE,158,4.7,6.7,72,0.00,,,0.00,WUHU216HW,2013-04-26 10:14:00,
2013-04-26 05:19:00,44.3,35.8,29.51,SE,135,3.1,6.7,72,0.00,,,0.00,WUHU216HW,2013-04-26 10:19:00,
2013-04-26 05:24:00,44.3,35.8,29.51,SE,135,3.6,5.6,72,0.00,,,0.00,WUHU216HW,2013-04-26 10:24:00,
2013-04-26 05:29:00,44.1,35.6,29.51,SE,135,3.4,4.3,72,0.00,,,0.00,WUHU216HW,2013-04-26 10:29:00,
2013-04-26 05:35:00,44.1,36.0,29.51,SE,135,3.4,4.3,73,0.00,,,0.00,WUHU216HW,2013-04-26 10:35:00,
2013-04-26 05:40:00,44.3,36.2,29.52,SSE,158,3.4,4.9,73,0.00,,,0.00,WUHU216HW,2013-04-26 10:40:00,
2013-04-26 05:45:00,44.3,36.2,29.51,SSE,158,3.4,5.1,73,0.00,,,0.00,WUHU216HW,2013-04-26 10:45:00,
2013-04-26 05:50:00,44.3,36.2,29.51,SE,135,3.6,5.1,73,0.00,,,0.00,WUHU216HW,2013-04-26 10:50:00,
2013-04-26 05:55:00,44.3,36.5,29.51,SE,135,6.5,6.7,74,0.00,,,0.00,WUHU216HW,2013-04-26 10:55:00,
2013-04-26 06:00:00,44.3,36.5,29.52,SE,135,3.6,6.7,74,0.00,,,0.00,WUHU216HW,2013-04-26 11:00:00,
2013-04-26 06:05:00,44.3,36.5,29.52,SE,135,4.7,4.7,74,0.00,,,0.00,WUHU216HW,2013-04-26 11:05:00,
2013-04-26 06:10:00,44.5,36.6,29.52,SE,135,3.4,5.8,74,0.00,,,0.00,WUHU216HW,2013-04-26 11:10:00,
2013-04-26 06:15:00,44.5,36.6,29.52,SE,135,5.4,5.8,74,0.00,,,0.00,WUHU216HW,2013-04-26 11:15:00,
2013-04-26 06:21:00,44.6,36.8,29.52,SSE,158,4.5,5.4,74,0.00,,,0.00,WUHU216HW,2013-04-26 11:21:00,
2013-04-26 06:26:00,44.8,37.0,29.52,SE,135,5.6,7.6,74,0.00,,,0.00,WUHU216HW,2013-04-26 11:26:00,
2013-04-26 06:31:00,45.0,37.2,29.52,SSE,158,4.9,7.4,74,0.00,,,0.00,WUHU216HW,2013-04-26 11:31:00,
2013-04-26 06:36:00,45.4,37.5,29.52,SSE,158,4.0,7.4,74,0.00,,,0.00,WUHU216HW,2013-04-26 11:36:00,
2013-04-26 06:41:00,45.4,37.5,29.52,South,180,5.4,6.0,74,0.00,,,0.00,WUHU216HW,2013-04-26 11:41:00,
2013-04-26 06:46:00,45.7,37.9,29.52,SSE,158,4.7,7.6,74,0.00,,,0.00,WUHU216HW,2013-04-26 11:46:00,
2013-04-26 06:51:00,45.7,37.9,29.52,SSE,158,3.4,7.6,74,0.00,,,0.00,WUHU216HW,2013-04-26 11:51:00,
2013-04-26 06:56:00,46.1,38.3,29.52,SE,135,4.7,7.6,74,0.00,,,0.00,WUHU216HW,2013-04-26 11:56:00,
2013-04-26 07:01:00,46.1,38.3,29.52,SE,135,4.5,6.3,74,0.00,,,0.00,WUHU216HW,2013-04-26 12:01:00,
2013-04-26 07:06:00,46.4,38.6,29.52,SSE,158,5.6,5.6,74,0.00,,,0.00,WUHU216HW,2013-04-26 12:06:00,
2013-04-26 07:11:00,46.4,38.3,29.52,SSE,158,6.0,6.3,73,0.00,,,0.00,WUHU216HW,2013-04-26 12:11:00,
2013-04-26 07:16:00,46.6,38.4,29.52,SSE,158,5.1,6.3,73,0.00,,,0.00,WUHU216HW,2013-04-26 12:16:00,
2013-04-26 07:22:00,47.0,38.8,29.52,SE,135,6.3,6.3,73,0.00,,,0.00,WUHU216HW,2013-04-26 12:22:00,
2013-04-26 07:27:00,47.2,39.0,29.52,SSE,158,5.6,6.3,73,0.00,,,0.00,WUHU216HW,2013-04-26 12:27:00,
2013-04-26 07:32:00,47.3,39.1,29.52,SSE,158,5.8,5.8,73,0.00,,,0.00,WUHU216HW,2013-04-26 12:32:00,
2013-04-26 07:37:00,47.5,38.9,29.52,SE,135,5.4,7.4,72,0.00,,,0.00,WUHU216HW,2013-04-26 12:37:00,
2013-04-26 07:42:00,47.5,38.9,29.52,SE,135,6.7,8.1,72,0.00,,,0.00,WUHU216HW,2013-04-26 12:42:00,
2013-04-26 07:47:00,47.9,39.2,29.52,SSE,158,5.1,8.1,72,0.00,,,0.00,WUHU216HW,2013-04-26 12:47:00,
2013-04-26 07:52:00,48.1,39.4,29.52,SE,135,2.2,6.0,72,0.00,,,0.00,WUHU216HW,2013-04-26 12:52:00,
2013-04-26 07:57:00,48.2,39.6,29.53,SSE,158,3.1,6.0,72,0.00,,,0.00,WUHU216HW,2013-04-26 12:57:00,
2013-04-26 08:02:00,48.6,40.0,29.53,SSE,158,4.0,5.6,72,0.00,,,0.00,WUHU216HW,2013-04-26 13:02:00,
2013-04-26 08:07:00,48.6,40.0,29.53,SSE,158,4.7,7.4,72,0.00,,,0.00,WUHU216HW,2013-04-26 13:07:00,
2013-04-26 08:12:00,49.0,40.3,29.53,SSE,158,6.3,7.4,72,0.00,,,0.00,WUHU216HW,2013-04-26 13:12:00,
2013-04-26 08:17:00,49.1,40.5,29.54,SE,135,3.4,6.3,72,0.00,,,0.00,WUHU216HW,2013-04-26 13:17:00,
2013-04-26 08:22:00,49.5,40.9,29.54,SE,135,2.7,6.7,72,0.00,,,0.00,WUHU216HW,2013-04-26 13:22:00,
2013-04-26 08:27:00,49.9,41.2,29.54,SE,135,2.9,6.7,72,0.00,,,0.00,WUHU216HW,2013-04-26 13:27:00,
2013-04-26 08:32:00,50.2,41.2,29.54,SE,135,6.0,6.0,71,0.00,,,0.00,WUHU216HW,2013-04-26 13:32:00,
2013-04-26 08:37:00,50.8,41.4,29.55,SSE,158,4.7,6.0,70,0.00,,,0.00,WUHU216HW,2013-04-26 13:37:00,
2013-04-26 08:42:00,51.1,41.8,29.55,SE,135,6.7,6.7,70,0.00,,,0.00,WUHU216HW,2013-04-26 13:42:00,
2013-04-26 08:47:00,51.7,41.9,29.55,WSW,248,2.9,6.9,69,0.00,,,0.00,WUHU216HW,2013-04-26 13:47:00,
2013-04-26 08:53:00,52.2,42.4,29.55,SE,135,2.9,7.6,69,0.00,,,0.00,WUHU216HW,2013-04-26 13:53:00,
2013-04-26 08:58:00,52.7,42.9,29.55,SSE,158,5.1,7.6,69,0.00,,,0.00,WUHU216HW,2013-04-26 13:58:00,
2013-04-26 09:03:00,53.3,43.4,29.55,SE,135,2.5,5.4,69,0.00,,,0.00,WUHU216HW,2013-04-26 14:03:00,
2013-04-26 09:08:00,53.8,43.9,29.55,South,180,4.7,5.4,69,0.00,,,0.00,WUHU216HW,2013-04-26 14:08:00,
2013-04-26 09:13:00,54.4,44.0,29.55,SSE,158,2.9,5.4,68,0.00,,,0.00,WUHU216HW,2013-04-26 14:13:00,
2013-04-26 09:18:00,54.7,43.9,29.55,SE,135,4.0,4.9,67,0.00,,,0.00,WUHU216HW,2013-04-26 14:18:00,
2013-04-26 09:23:00,55.4,44.3,29.55,SSE,158,3.8,4.9,66,0.00,,,0.00,WUHU216HW,2013-04-26 14:23:00,
2013-04-26 09:28:00,55.8,44.2,29.55,SE,135,3.1,5.4,65,0.00,,,0.00,WUHU216HW,2013-04-26 14:28:00,
2013-04-26 09:34:00,56.3,44.3,29.55,SSE,158,2.5,5.4,64,0.00,,,0.00,WUHU216HW,2013-04-26 14:34:00,
2013-04-26 09:39:00,56.9,44.8,29.55,SE,135,2.9,6.3,64,0.00,,,0.00,WUHU216HW,2013-04-26 14:39:00,
2013-04-26 09:44:00,57.2,45.2,29.56,SE,135,1.3,4.3,64,0.00,,,0.00,WUHU216HW,2013-04-26 14:44:00,
2013-04-26 09:49:00,57.8,45.3,29.56,SSE,158,2.5,4.3,63,0.00,,,0.00,WUHU216HW,2013-04-26 14:49:00,
2013-04-26 09:54:00,58.1,45.6,29.56,SSE,158,4.0,4.0,63,0.00,,,0.00,WUHU216HW,2013-04-26 14:54:00,
2013-04-26 09:59:00,58.5,45.6,29.56,SSE,158,4.0,6.0,62,0.00,,,0.00,WUHU216HW,2013-04-26 14:59:00,
2013-04-26 10:04:00,59.0,46.0,29.56,South,180,4.0,6.0,62,0.00,,,0.00,WUHU216HW,2013-04-26 15:04:00,
2013-04-26 10:09:00,59.4,46.0,29.56,SE,135,3.1,7.2,61,0.00,,,0.00,WUHU216HW,2013-04-26 15:09:00,
2013-04-26 10:14:00,59.4,46.4,29.56,SW,225,3.4,7.2,62,0.00,,,0.00,WUHU216HW,2013-04-26 15:14:00,
2013-04-26 10:19:00,59.6,46.2,29.57,SSW,203,3.4,4.0,61,0.00,,,0.00,WUHU216HW,2013-04-26 15:19:00,
2013-04-26 10:25:00,59.8,46.4,29.57,SW,225,2.5,4.3,61,0.00,,,0.00,WUHU216HW,2013-04-26 15:25:00,
2013-04-26 10:30:00,59.9,46.5,29.56,WSW,248,3.4,4.3,61,0.00,,,0.00,WUHU216HW,2013-04-26 15:30:00,
2013-04-26 10:35:00,60.5,47.1,29.56,East,90,3.4,5.6,61,0.00,,,0.00,WUHU216HW,2013-04-26 15:35:00,
2013-04-26 10:40:00,61.6,48.1,29.56,SSW,203,3.1,5.6,61,0.00,,,0.00,WUHU216HW,2013-04-26 15:40:00,
2013-04-26 10:45:00,62.3,49.2,29.57,SE,135,5.1,5.1,62,0.00,,,0.00,WUHU216HW,2013-04-26 15:45:00,
2013-04-26 10:50:00,63.5,48.4,29.57,SE,135,6.0,6.3,58,0.00,,,0.00,WUHU216HW,2013-04-26 15:50:00,
2013-04-26 10:55:00,63.7,47.6,29.57,SSW,203,1.8,7.8,56,0.00,,,0.00,WUHU216HW,2013-04-26 15:55:00,
2013-04-26 11:00:00,63.9,48.2,29.57,SSW,203,4.9,7.8,57,0.00,,,0.00,WUHU216HW,2013-04-26 16:00:00,
2013-04-26 11:05:00,64.3,48.2,29.57,South,180,4.0,6.5,56,0.00,,,0.00,WUHU216HW,2013-04-26 16:05:00,
2013-04-26 11:10:00,65.2,49.0,29.57,SSE,158,4.7,6.9,56,0.00,,,0.00,WUHU216HW,2013-04-26 16:10:00,
2013-04-26 11:16:00,65.7,48.6,29.57,WNW,293,4.7,8.5,54,0.00,,,0.00,WUHU216HW,2013-04-26 16:16:00,
2013-04-26 11:21:00,65.9,48.2,29.57,WSW,248,2.5,8.5,53,0.00,,,0.00,WUHU216HW,2013-04-26 16:21:00,
2013-04-26 11:26:00,65.7,47.6,29.58,SSW,203,5.4,7.6,52,0.00,,,0.00,WUHU216HW,2013-04-26 16:26:00,
2013-04-26 11:31:00,65.3,46.7,29.58,SW,225,7.2,7.6,51,0.00,,,0.00,WUHU216HW,2013-04-26 16:31:00,
2013-04-26 11:36:00,64.6,46.5,29.58,SW,225,4.0,8.1,52,0.00,,,0.00,WUHU216HW,2013-04-26 16:36:00,
2013-04-26 11:41:00,64.3,47.2,29.58,SW,225,6.5,8.1,54,0.00,,,0.00,WUHU216HW,2013-04-26 16:41:00,
2013-04-26 11:46:00,63.9,46.8,29.57,WSW,248,5.4,6.7,54,0.00,,,0.00,WUHU216HW,2013-04-26 16:46:00,
2013-04-26 11:51:00,63.9,47.4,29.57,SW,225,2.2,6.7,55,0.00,,,0.00,WUHU216HW,2013-04-26 16:51:00,
2013-04-26 11:56:00,64.1,47.4,29.57,WSW,248,4.5,6.0,55,0.00,,,0.00,WUHU216HW,2013-04-26 16:56:00,
2013-04-26 12:02:00,63.9,46.8,29.57,SSE,158,3.4,8.3,54,0.00,,,0.00,WUHU216HW,2013-04-26 17:02:00,
2013-04-26 12:07:00,64.1,47.4,29.57,WSW,248,2.5,8.3,55,0.00,,,0.00,WUHU216HW,2013-04-26 17:07:00,
2013-04-26 12:12:00,64.6,47.5,29.57,SSE,158,3.4,5.1,54,0.00,,,0.00,WUHU216HW,2013-04-26 17:12:00,
2013-04-26 12:17:00,65.3,46.7,29.57,South,180,7.4,7.4,51,0.00,,,0.00,WUHU216HW,2013-04-26 17:17:00,
2013-04-26 12:22:00,64.8,46.2,29.57,SW,225,2.5,7.6,51,0.00,,,0.00,WUHU216HW,2013-04-26 17:22:00,
2013-04-26 12:27:00,64.6,47.0,29.56,SSE,158,4.7,7.6,53,0.00,,,0.00,WUHU216HW,2013-04-26 17:27:00,
2013-04-26 12:32:00,64.4,46.4,29.56,SSW,203,2.2,6.9,52,0.00,,,0.00,WUHU216HW,2013-04-26 17:32:00,
2013-04-26 12:37:00,64.1,45.6,29.55,SE,135,4.0,4.5,51,0.00,,,0.00,WUHU216HW,2013-04-26 17:37:00,
2013-04-26 12:42:00,64.1,46.5,29.56,SE,135,2.2,7.6,53,0.00,,,0.00,WUHU216HW,2013-04-26 17:42:00,
2013-04-26 12:47:00,64.3,46.2,29.56,WSW,248,4.7,7.6,52,0.00,,,0.00,WUHU216HW,2013-04-26 17:47:00,
2013-04-26 12:52:00,64.4,46.8,29.56,SW,225,4.0,6.3,53,0.00,,,0.00,WUHU216HW,2013-04-26 17:52:00,
2013-04-26 12:57:00,64.4,46.8,29.56,South,180,5.4,6.3,53,0.00,,,0.00,WUHU216HW,2013-04-26 17:57:00,
2013-04-26 13:03:00,64.4,46.8,29.55,SSE,158,2.5,8.5,53,0.00,,,0.00,WUHU216HW,2013-04-26 18:03:00,
2013-04-26 13:08:00,64.3,47.2,29.56,SE,135,4.0,8.5,54,0.00,,,0.00,WUHU216HW,2013-04-26 18:08:00,
2013-04-26 13:13:00,64.1,47.4,29.55,SW,225,2.5,4.3,55,0.00,,,0.00,WUHU216HW,2013-04-26 18:13:00,
2013-04-26 13:18:00,63.9,47.4,29.55,South,180,2.5,4.9,55,0.00,,,0.00,WUHU216HW,2013-04-26 18:18:00,
2013-04-26 13:23:00,63.7,47.2,29.56,SW,225,2.7,6.9,55,0.00,,,0.00,WUHU216HW,2013-04-26 18:23:00,
2013-04-26 13:28:00,64.1,47.4,29.55,SE,135,2.9,6.9,55,0.00,,,0.00,WUHU216HW,2013-04-26 18:28:00,
2013-04-26 13:33:00,64.8,48.2,29.55,SE,135,3.8,6.0,55,0.00,,,0.00,WUHU216HW,2013-04-26 18:33:00,
2013-04-26 13:38:00,65.7,48.1,29.55,SSE,158,6.3,6.3,53,0.00,,,0.00,WUHU216HW,2013-04-26 18:38:00,
2013-04-26 13:43:00,66.4,47.8,29.55,ESE,113,3.8,6.3,51,0.00,,,0.00,WUHU216HW,2013-04-26 18:43:00,
2013-04-26 13:48:00,66.4,48.8,29.55,SSE,158,5.4,5.4,53,0.00,,,0.00,WUHU216HW,2013-04-26 18:48:00,
2013-04-26 13:53:00,66.6,48.0,29.55,WSW,248,4.9,8.7,51,0.00,,,0.00,WUHU216HW,2013-04-26 18:53:00,
2013-04-26 13:58:00,66.2,47.6,29.55,ESE,113,6.9,8.7,51,0.00,,,0.00,WUHU216HW,2013-04-26 18:58:00,
2013-04-26 14:03:00,66.1,48.0,29.55,WNW,293,5.1,7.6,52,0.00,,,0.00,WUHU216HW,2013-04-26 19:03:00,
2013-04-26 14:08:00,65.9,47.8,29.55,SW,225,2.7,7.6,52,0.00,,,0.00,WUHU216HW,2013-04-26 19:08:00,
2013-04-26 14:13:00,66.1,48.4,29.55,SSW,203,6.7,6.7,53,0.00,,,0.00,WUHU216HW,2013-04-26 19:13:00,
2013-04-26 14:18:00,65.9,48.2,29.55,ESE,113,2.7,6.7,53,0.00,,,0.00,WUHU216HW,2013-04-26 19:18:00,
2013-04-26 14:23:00,65.9,48.2,29.55,SSE,158,4.0,5.4,53,0.00,,,0.00,WUHU216HW,2013-04-26 19:23:00,
2013-04-26 14:29:00,66.2,48.2,29.55,WNW,293,3.1,6.9,52,0.00,,,0.00,WUHU216HW,2013-04-26 19:29:00,
2013-04-26 14:34:00,66.1,49.0,29.54,SSW,203,4.0,6.9,54,0.00,,,0.00,WUHU216HW,2013-04-26 19:34:00,
2013-04-26 14:39:00,66.4,48.8,29.54,SW,225,1.8,6.0,53,0.00,,,0.00,WUHU216HW,2013-04-26 19:39:00,
2013-04-26 14:44:00,67.1,49.4,29.54,SSW,203,1.8,6.0,53,0.00,,,0.00,WUHU216HW,2013-04-26 19:44:00,
2013-04-26 14:49:00,68.0,49.8,29.54,SSE,158,7.8,7.8,52,0.00,,,0.00,WUHU216HW,2013-04-26 19:49:00,
2013-04-26 14:54:00,68.6,49.8,29.54,SSE,158,4.0,10.3,51,0.00,,,0.00,WUHU216HW,2013-04-26 19:54:00,
2013-04-26 14:59:00,68.6,49.8,29.53,South,180,3.4,10.3,51,0.00,,,0.00,WUHU216HW,2013-04-26 19:59:00,
2013-04-26 15:04:00,68.8,50.0,29.53,SSE,158,4.9,5.8,51,0.00,,,0.00,WUHU216HW,2013-04-26 20:04:00,
2013-04-26 15:09:00,69.3,49.3,29.52,SE,135,8.7,10.3,49,0.00,,,0.00,WUHU216HW,2013-04-26 20:09:00,
2013-04-26 15:14:00,68.9,50.1,29.52,East,90,2.9,10.3,51,0.00,,,0.00,WUHU216HW,2013-04-26 20:14:00,
2013-04-26 15:19:00,68.6,48.1,29.52,SE,135,6.0,9.6,48,0.00,,,0.00,WUHU216HW,2013-04-26 20:19:00,
2013-04-26 15:24:00,68.4,49.6,29.52,SSE,158,4.0,6.0,51,0.00,,,0.00,WUHU216HW,2013-04-26 20:24:00,
2013-04-26 15:29:00,68.8,49.4,29.51,SSE,158,4.7,4.7,50,0.00,,,0.00,WUHU216HW,2013-04-26 20:29:00,
2013-04-26 15:34:00,68.4,48.5,29.51,SSE,158,3.6,12.1,49,0.00,,,0.00,WUHU216HW,2013-04-26 20:34:00,
2013-04-26 15:39:00,67.9,48.1,29.51,SE,135,5.6,12.1,49,0.00,,,0.00,WUHU216HW,2013-04-26 20:39:00,
2013-04-26 15:44:00,67.3,48.2,29.51,SSE,158,7.6,8.1,50,0.00,,,0.00,WUHU216HW,2013-04-26 20:44:00,
2013-04-26 15:50:00,66.6,46.9,29.51,SSE,158,4.9,8.1,49,0.00,,,0.00,WUHU216HW,2013-04-26 20:50:00,
2013-04-26 15:55:00,66.2,47.2,29.51,SSE,158,4.0,7.8,50,0.00,,,0.00,WUHU216HW,2013-04-26 20:55:00,
2013-04-26 16:00:00,65.9,47.3,29.50,SE,135,6.3,7.8,51,0.00,,,0.00,WUHU216HW,2013-04-26 21:00:00,
2013-04-26 16:05:00,66.2,48.2,29.50,SE,135,4.7,7.4,52,0.00,,,0.00,WUHU216HW,2013-04-26 21:05:00,
2013-04-26 16:10:00,66.1,48.0,29.50,SSE,158,2.9,7.4,52,0.00,,,0.00,WUHU216HW,2013-04-26 21:10:00,
2013-04-26 16:15:00,65.9,47.8,29.50,SE,135,4.5,5.4,52,0.00,,,0.00,WUHU216HW,2013-04-26 21:15:00,
2013-04-26 16:20:00,66.1,48.0,29.49,ESE,113,2.2,7.2,52,0.00,,,0.00,WUHU216HW,2013-04-26 21:20:00,
2013-04-26 16:25:00,66.6,48.4,29.49,South,180,5.4,7.2,52,0.00,,,0.00,WUHU216HW,2013-04-26 21:25:00,
2013-04-26 16:31:00,66.6,48.4,29.49,SW,225,3.8,5.4,52,0.00,,,0.00,WUHU216HW,2013-04-26 21:31:00,
2013-04-26 16:36:00,66.6,48.4,29.49,SSE,158,3.1,7.2,52,0.00,,,0.00,WUHU216HW,2013-04-26 21:36:00,
2013-04-26 16:41:00,66.4,48.3,29.49,SSE,158,3.8,7.2,52,0.00,,,0.00,WUHU216HW,2013-04-26 21:41:00,
2013-04-26 16:46:00,66.4,48.8,29.50,SE,135,3.8,4.5,53,0.00,,,0.00,WUHU216HW,2013-04-26 21:46:00,
2013-04-26 16:51:00,66.4,48.8,29.50,ESE,113,1.8,4.0,53,0.00,,,0.00,WUHU216HW,2013-04-26 21:51:00,
2013-04-26 16:56:00,66.4,48.8,29.50,South,180,2.0,6.9,53,0.00,,,0.00,WUHU216HW,2013-04-26 21:56:00,
2013-04-26 17:01:00,66.2,48.2,29.50,SE,135,2.7,6.9,52,0.00,,,0.00,WUHU216HW,2013-04-26 22:01:00,
2013-04-26 17:06:00,65.9,47.8,29.50,SE,135,4.5,6.3,52,0.00,,,0.00,WUHU216HW,2013-04-26 22:06:00,
2013-04-26 17:11:00,65.9,47.8,29.50,SE,135,2.9,6.3,52,0.00,,,0.00,WUHU216HW,2013-04-26 22:11:00,
2013-04-26 17:16:00,65.9,47.8,29.50,SE,135,1.3,5.1,52,0.00,,,0.00,WUHU216HW,2013-04-26 22:16:00,
2013-04-26 17:21:00,65.9,48.2,29.51,SSE,158,3.4,5.1,53,0.00,,,0.00,WUHU216HW,2013-04-26 22:21:00,
2013-04-26 17:26:00,66.1,48.0,29.50,SE,135,3.4,4.3,52,0.00,,,0.00,WUHU216HW,2013-04-26 22:26:00,
2013-04-26 17:31:00,66.2,48.6,29.51,South,180,3.8,8.1,53,0.00,,,0.00,WUHU216HW,2013-04-26 22:31:00,
2013-04-26 17:37:00,66.4,48.3,29.51,SSE,158,4.5,8.1,52,0.00,,,0.00,WUHU216HW,2013-04-26 22:37:00,
2013-04-26 17:41:00,65.9,48.2,29.52,SE,135,3.8,8.1,53,0.00,,,0.00,WUHU216HW,2013-04-26 22:41:00,
2013-04-26 17:47:00,65.5,47.9,29.52,WSW,248,2.2,8.1,53,0.00,,,0.00,WUHU216HW,2013-04-26 22:47:00,
2013-04-26 17:52:00,65.2,48.1,29.52,ESE,113,4.7,4.9,54,0.00,,,0.00,WUHU216HW,2013-04-26 22:52:00,
2013-04-26 17:57:00,64.8,47.7,29.52,SE,135,4.0,4.9,54,0.00,,,0.00,WUHU216HW,2013-04-26 22:57:00,
2013-04-26 18:02:00,64.4,47.4,29.52,SSE,158,2.7,4.5,54,0.00,,,0.00,WUHU216HW,2013-04-26 23:02:00,
2013-04-26 18:07:00,64.1,47.0,29.52,SSE,158,2.7,3.6,54,0.00,,,0.00,WUHU216HW,2013-04-26 23:07:00,
2013-04-26 18:12:00,63.5,47.0,29.52,SSE,158,3.6,3.6,55,0.00,,,0.00,WUHU216HW,2013-04-26 23:12:00,
2013-04-26 18:17:00,63.5,47.0,29.52,SSE,158,1.6,3.6,55,0.00,,,0.00,WUHU216HW,2013-04-26 23:17:00,
2013-04-26 18:22:00,64.4,47.8,29.52,SE,135,2.9,4.3,55,0.00,,,0.00,WUHU216HW,2013-04-26 23:22:00,
2013-04-26 18:27:00,64.6,47.5,29.52,SW,225,2.5,4.3,54,0.00,,,0.00,WUHU216HW,2013-04-26 23:27:00,
2013-04-26 18:32:00,64.4,47.4,29.52,ESE,113,2.5,2.7,54,0.00,,,0.00,WUHU216HW,2013-04-26 23:32:00,
2013-04-26 18:37:00,63.9,46.8,29.52,ESE,113,3.4,3.4,54,0.00,,,0.00,WUHU216HW,2013-04-26 23:37:00,
2013-04-26 18:42:00,63.2,46.6,29.52,WSW,248,1.8,4.5,55,0.00,,,0.00,WUHU216HW,2013-04-26 23:42:00,
2013-04-26 18:47:00,62.5,46.5,29.52,SE,135,4.0,4.5,56,0.00,,,0.00,WUHU216HW,2013-04-26 23:47:00,
2013-04-26 18:52:00,62.1,46.6,29.52,SSE,158,3.4,4.7,57,0.00,,,0.00,WUHU216HW,2013-04-26 23:52:00,
2013-04-26 18:54:00,61.9,46.5,29.52,South,180,2.2,4.7,57,0.00,,,0.00,WUHU216HW,2013-04-26 23:54:00,
2013-04-26 19:05:00,61.6,46.6,29.52,SSE,158,4.0,4.7,58,0.00,,,0.00,WUHU216HW,2013-04-27 00:05:00,
2013-04-26 19:10:00,61.0,46.2,29.52,SE,135,1.1,3.4,58,0.00,,,0.00,WUHU216HW,2013-04-27 00:10:00,
2013-04-26 19:16:00,60.8,46.5,29.52,SSE,158,2.2,3.4,59,0.00,,,0.00,WUHU216HW,2013-04-27 00:16:00,
2013-04-26 19:21:00,60.5,46.6,29.51,SSE,158,1.6,3.1,60,0.00,,,0.00,WUHU216HW,2013-04-27 00:21:00,
2013-04-26 19:26:00,59.9,46.1,29.51,SSW,203,1.3,3.4,60,0.00,,,0.00,WUHU216HW,2013-04-27 00:26:00,
2013-04-26 19:31:00,59.8,45.9,29.52,SSE,158,1.1,3.4,60,0.00,,,0.00,WUHU216HW,2013-04-27 00:31:00,
2013-04-26 19:36:00,59.4,46.0,29.52,SE,135,1.8,3.4,61,0.00,,,0.00,WUHU216HW,2013-04-27 00:36:00,
2013-04-26 19:41:00,58.9,45.0,29.52,SE,135,1.8,3.4,60,0.00,,,0.00,WUHU216HW,2013-04-27 00:41:00,
2013-04-26 19:46:00,58.5,45.1,29.52,SSE,158,1.1,2.5,61,0.00,,,0.00,WUHU216HW,2013-04-27 00:46:00,
2013-04-26 19:51:00,58.1,44.8,29.52,SE,135,0.4,2.5,61,0.00,,,0.00,WUHU216HW,2013-04-27 00:51:00,
2013-04-26 19:56:00,57.8,44.8,29.52,SW,225,1.1,1.8,62,0.00,,,0.00,WUHU216HW,2013-04-27 00:56:00,
2013-04-26 20:01:00,57.6,44.6,29.53,SE,135,1.8,1.8,62,0.00,,,0.00,WUHU216HW,2013-04-27 01:01:00,
2013-04-26 20:06:00,57.2,44.4,29.53,SE,135,0.0,1.8,62,0.00,,,0.00,WUHU216HW,2013-04-27 01:06:00,
2013-04-26 20:11:00,57.1,44.2,29.53,SE,135,1.1,1.1,62,0.00,,,0.00,WUHU216HW,2013-04-27 01:11:00,
2013-04-26 20:16:00,56.7,44.2,29.53,SE,135,0.7,2.0,63,0.00,,,0.00,WUHU216HW,2013-04-27 01:16:00,
2013-04-26 20:22:00,56.5,44.0,29.53,SE,135,0.4,2.0,63,0.00,,,0.00,WUHU216HW,2013-04-27 01:22:00,
2013-04-26 20:27:00,56.3,44.3,29.53,SE,135,0.0,1.1,64,0.00,,,0.00,WUHU216HW,2013-04-27 01:27:00,
2013-04-26 20:32:00,56.2,44.1,29.53,SE,135,0.0,0.0,64,0.00,,,0.00,WUHU216HW,2013-04-27 01:32:00,
2013-04-26 20:37:00,56.2,44.1,29.53,SE,135,1.1,1.1,64,0.00,,,0.00,WUHU216HW,2013-04-27 01:37:00,
2013-04-26 20:42:00,56.0,44.4,29.53,SE,135,1.6,1.6,65,0.00,,,0.00,WUHU216HW,2013-04-27 01:42:00,
2013-04-26 20:47:00,55.8,44.2,29.53,SE,135,1.6,1.6,65,0.00,,,0.00,WUHU216HW,2013-04-27 01:47:00,
2013-04-26 20:52:00,55.8,44.2,29.53,SE,135,0.9,1.6,65,0.00,,,0.00,WUHU216HW,2013-04-27 01:52:00,
2013-04-26 20:57:00,55.4,44.3,29.53,SE,135,0.7,1.6,66,0.00,,,0.00,WUHU216HW,2013-04-27 01:57:00,
2013-04-26 21:02:00,55.1,43.9,29.54,SE,135,0.0,1.6,66,0.00,,,0.00,WUHU216HW,2013-04-27 02:02:00,
2013-04-26 21:07:00,54.9,44.1,29.54,SE,135,1.3,1.8,67,0.00,,,0.00,WUHU216HW,2013-04-27 02:07:00,
2013-04-26 21:12:00,54.7,43.9,29.54,SE,135,0.7,1.8,67,0.00,,,0.00,WUHU216HW,2013-04-27 02:12:00,
2013-04-26 21:17:00,54.4,44.0,29.54,SE,135,1.3,1.8,68,0.00,,,0.00,WUHU216HW,2013-04-27 02:17:00,
2013-04-26 21:22:00,54.4,44.0,29.55,SE,135,0.4,1.8,68,0.00,,,0.00,WUHU216HW,2013-04-27 02:22:00,
2013-04-26 21:27:00,54.2,43.8,29.55,SE,135,1.1,1.8,68,0.00,,,0.00,WUHU216HW,2013-04-27 02:27:00,
2013-04-26 21:32:00,53.8,43.5,29.55,SSE,158,0.7,1.8,68,0.00,,,0.00,WUHU216HW,2013-04-27 02:32:00,
2013-04-26 21:37:00,53.6,43.8,29.55,SE,135,1.3,1.8,69,0.00,,,0.00,WUHU216HW,2013-04-27 02:37:00,
2013-04-26 21:42:00,53.5,43.6,29.55,SE,135,0.9,1.6,69,0.00,,,0.00,WUHU216HW,2013-04-27 02:42:00,
2013-04-26 21:47:00,53.3,43.4,29.55,SE,135,0.7,1.3,69,0.00,,,0.00,WUHU216HW,2013-04-27 02:47:00,
2013-04-26 21:53:00,53.1,43.7,29.55,SE,135,1.8,1.8,70,0.00,,,0.00,WUHU216HW,2013-04-27 02:53:00,
2013-04-26 21:58:00,52.9,43.5,29.55,ESE,113,1.1,1.8,70,0.00,,,0.00,WUHU216HW,2013-04-27 02:58:00,
2013-04-26 22:03:00,52.7,43.3,29.55,SE,135,0.2,1.8,70,0.00,,,0.00,WUHU216HW,2013-04-27 03:03:00,
2013-04-26 22:08:00,52.6,43.5,29.55,SE,135,1.3,2.0,71,0.00,,,0.00,WUHU216HW,2013-04-27 03:08:00,
2013-04-26 22:13:00,52.4,43.3,29.55,SE,135,3.4,3.4,71,0.00,,,0.00,WUHU216HW,2013-04-27 03:13:00,
2013-04-26 22:18:00,52.2,43.5,29.55,SE,135,3.1,4.0,72,0.00,,,0.00,WUHU216HW,2013-04-27 03:18:00,
2013-04-26 22:23:00,52.2,43.5,29.55,SE,135,2.0,4.0,72,0.00,,,0.00,WUHU216HW,2013-04-27 03:23:00,
2013-04-26 22:28:00,52.0,44.4,29.55,SE,135,3.6,4.3,75,0.00,,,0.00,WUHU216HW,2013-04-27 03:28:00,
2013-04-26 22:33:00,51.8,44.2,29.55,SE,135,2.5,4.3,75,0.00,,,0.00,WUHU216HW,2013-04-27 03:33:00,
2013-04-26 22:38:00,51.7,43.7,29.55,SE,135,2.0,3.4,74,0.00,,,0.00,WUHU216HW,2013-04-27 03:38:00,
2013-04-26 22:43:00,51.7,44.4,29.55,SSE,158,1.8,4.3,76,0.00,,,0.00,WUHU216HW,2013-04-27 03:43:00,
2013-04-26 22:48:00,51.5,44.2,29.55,SE,135,3.4,4.3,76,0.00,,,0.00,WUHU216HW,2013-04-27 03:48:00,
2013-04-26 22:53:00,51.5,44.2,29.55,SE,135,3.4,4.0,76,0.00,,,0.00,WUHU216HW,2013-04-27 03:53:00,
2013-04-26 22:58:00,51.3,44.0,29.55,SE,135,1.8,4.0,76,0.00,,,0.00,WUHU216HW,2013-04-27 03:58:00,
2013-04-26 23:01:00,51.1,43.8,29.55,SE,135,2.5,3.4,76,0.00,,,0.00,WUHU216HW,2013-04-27 04:01:00,
2013-04-26 23:02:00,51.1,44.2,29.55,SE,135,3.1,3.4,77,0.00,,,0.00,WUHU216HW,2013-04-27 04:02:00,
2013-04-26 23:07:00,51.1,44.2,29.55,SE,135,1.8,3.1,77,0.00,,,0.00,WUHU216HW,2013-04-27 04:07:00,
2013-04-26 23:12:00,50.9,44.0,29.55,SE,135,1.1,3.4,77,0.00,,,0.00,WUHU216HW,2013-04-27 04:12:00,
2013-04-26 23:17:00,50.8,43.8,29.54,SE,135,2.7,3.4,77,0.00,,,0.00,WUHU216HW,2013-04-27 04:17:00,
2013-04-26 23:22:00,50.8,43.8,29.54,SE,135,1.8,2.7,77,0.00,,,0.00,WUHU216HW,2013-04-27 04:22:00,
2013-04-26 23:27:00,50.8,43.8,29.54,SE,135,2.0,2.7,77,0.00,,,0.00,WUHU216HW,2013-04-27 04:27:00,
2013-04-26 23:33:00,50.6,43.7,29.55,SE,135,1.3,2.7,77,0.00,,,0.00,WUHU216HW,2013-04-27 04:33:00,
2013-04-26 23:38:00,50.6,43.7,29.55,SE,135,2.2,2.7,77,0.00,,,0.00,WUHU216HW,2013-04-27 04:38:00,
2013-04-26 23:43:00,50.4,43.5,29.55,SE,135,1.1,2.5,77,0.00,,,0.00,WUHU216HW,2013-04-27 04:43:00,
2013-04-26 23:48:00,50.4,43.7,29.54,SSE,158,2.5,2.5,78,0.00,,,0.00,WUHU216HW,2013-04-27 04:48:00,
2013-04-26 23:53:00,50.0,43.4,29.54,SSE,158,1.6,2.5,78,0.00,,,0.00,WUHU216HW,2013-04-27 04:53:00,
2013-04-26 23:58:00,50.0,43.4,29.55,SSE,158,0.7,1.6,78,0.00,,,0.00,WUHU216HW,2013-04-27 04:58:00,